Weather History for Jackson, WY

Change the Weather History Date:

Tuesday, August 27, 2013

  Actual Average Record
Temperature  
Mean Temperature 62 °F -  
Max Temperature 75 °F 76 °F 89 °F (1985)
Min Temperature 48 °F 38 °F 26 °F (1993)
Degree Days  
Heating Degree Days 4    
Growing Degree Days 12 (Base 50)    
Moisture  
Dew Point 50 °F    
Average Humidity 82    
Maximum Humidity 100    
Minimum Humidity 31    
Precipitation  
Precipitation 0.01 in - - ()
Sea Level Pressure  
Sea Level Pressure 30.26 in    
Wind  
Wind Speed 2 mph (North)    
Max Wind Speed 7 mph    
Max Gust Speed -    
Visibility 10 miles    
Events Thunderstorm    
Averages and records for this station are not official NWS values.
T = Trace of Precipitation, MM = Missing Value Source: NWS Daily Summary

Daily Weather History Graph

Daily Weather History Graph

Search for Another Location

Airport:

Trip Planner

Search our weather history database for the weather conditions in past years. The results will help you decide how hot, cold, wet, or windy it might be!

Date:

Astronomy

Aug. 27, 2013 Rise Set
Actual Time 6:41 AM MDT 8:06 PM MDT
Civil Twilight 6:11 AM MDT 8:36 PM MDT
Nautical Twilight 5:35 AM MDT 9:12 PM MDT
Astronomical Twilight 4:57 AM MDT 9:50 PM MDT
Moon 11:48 PM MDT (8/27) 1:56 PM MDT (8/27)
Length of Visible Light 14h 24m
Length of Day
13h 25m
Waning Gibbous, 56% of the Moon is Illuminated
Aug 27
Waning Gibbous
Aug 28
Last Quarter
Sep 5
New
Sep 12
First Quarter
Sep 19
Full

Hourly Weather History & Observations

Time (MDT) Temp. Dew Point Humidity Pressure Visibility Wind Dir Wind Speed Gust Speed Precip Events Conditions
12:15 AM 55.4 °F 50.0 °F 82% 30.26 in 10.0 mi Calm Calm - N/A   Clear
12:35 AM 55.4 °F 48.2 °F 77% 30.26 in 10.0 mi East 3.5 mph - N/A   Clear
12:55 AM 53.6 °F 48.2 °F 82% 30.27 in 10.0 mi SE 4.6 mph - N/A   Clear
1:15 AM 51.8 °F 48.2 °F 88% 30.27 in 10.0 mi Calm Calm - N/A   Clear
1:35 AM 53.6 °F 48.2 °F 82% 30.27 in 10.0 mi NW 4.6 mph - N/A   Clear
1:55 AM 51.8 °F 46.4 °F 82% 30.27 in 10.0 mi Calm Calm - N/A   Clear
2:15 AM 51.8 °F 48.2 °F 88% 30.27 in 10.0 mi Calm Calm - N/A   Clear
2:35 AM 51.8 °F 48.2 °F 88% 30.28 in 10.0 mi Calm Calm - N/A   Partly Cloudy
2:55 AM 51.8 °F 46.4 °F 82% 30.27 in 10.0 mi North 3.5 mph - N/A   Partly Cloudy
3:15 AM 50.0 °F 48.2 °F 94% 30.27 in 10.0 mi North 5.8 mph - N/A   Mostly Cloudy
3:35 AM 51.8 °F 48.2 °F 88% 30.27 in 10.0 mi North 4.6 mph - N/A   Partly Cloudy
3:55 AM 51.8 °F 48.2 °F 88% 30.28 in 10.0 mi North 4.6 mph - N/A   Mostly Cloudy
4:15 AM 51.8 °F 48.2 °F 88% 30.27 in 10.0 mi NNW 5.8 mph - N/A   Overcast
4:35 AM 51.8 °F 48.2 °F 88% 30.27 in 10.0 mi NNE 3.5 mph - N/A   Overcast
4:55 AM 50.0 °F 46.4 °F 87% 30.27 in 10.0 mi North 5.8 mph - N/A   Scattered Clouds
5:15 AM 48.2 °F 46.4 °F 93% 30.27 in 10.0 mi NNW 5.8 mph - N/A   Clear
5:55 AM 48.2 °F 46.4 °F 93% 30.28 in 10.0 mi NE 3.5 mph - N/A   Clear
6:15 AM 48.2 °F 46.4 °F 93% 30.28 in 10.0 mi North 5.8 mph - N/A   Clear
6:35 AM 48.2 °F 46.4 °F 93% 30.28 in 10.0 mi Calm Calm - N/A   Clear
6:51 AM 48.2 °F 46.4 °F 93% 30.30 in 30.0 mi NNW 6.9 mph - N/A   Clear
7:51 AM 51.8 °F 48.2 °F 88% 30.31 in 10.0 mi Calm Calm - N/A   Scattered Clouds
9:57 AM 59.0 °F 48.2 °F 67% 30.31 in 10.0 mi ESE 3.5 mph - N/A   Clear
10:56 AM 64.4 °F 48.2 °F 56% 30.30 in 10.0 mi Calm Calm - N/A   Partly Cloudy
11:55 AM 68.0 °F 50.0 °F 52% 30.26 in 10.0 mi SE 3.5 mph - N/A   Mostly Cloudy
12:51 PM 71.6 °F 48.2 °F 43% 30.25 in 10.0 mi SSW 4.6 mph - N/A   Scattered Clouds
1:54 PM 73.4 °F 46.4 °F 38% 30.22 in 10.0 mi SSE 6.9 mph - N/A   Partly Cloudy
2:56 PM 75.2 °F 42.8 °F 31% 30.22 in 10.0 mi SSW 6.9 mph - N/A Thunderstorm Thunderstorm
3:51 PM 57.2 °F 55.4 °F 94% 30.28 in 10.0 mi Calm Calm - N/A Thunderstorm Overcast
4:51 PM 60.8 °F 55.4 °F 82% 30.25 in 10.0 mi Calm Calm - N/A   Mostly Cloudy
5:54 PM 62.6 °F 39.2 °F 42% 30.25 in 10.0 mi Calm Calm - N/A   Mostly Cloudy
6:58 PM 60.8 °F 55.4 °F 82% 30.26 in 10.0 mi Calm Calm - N/A   Mostly Cloudy
7:54 PM 62.6 °F 55.4 °F 77% 30.25 in 10.0 mi Calm Calm - N/A   Scattered Clouds
8:52 PM 59.0 °F 57.2 °F 94% 30.24 in 10.0 mi Calm Calm - N/A   Mostly Cloudy
8:55 PM 59.0 °F 57.2 °F 94% 30.24 in 10.0 mi North 3.5 mph - 0.01 in   Mostly Cloudy
9:15 PM 59.0 °F 55.4 °F 88% 30.25 in 10.0 mi North 3.5 mph - N/A   Mostly Cloudy
9:35 PM 57.2 °F 55.4 °F 94% 30.25 in 10.0 mi West 4.6 mph - N/A   Overcast
9:55 PM 57.2 °F 55.4 °F 94% 30.25 in 10.0 mi Calm Calm - N/A   Mostly Cloudy
10:15 PM 57.2 °F 55.4 °F 94% 30.25 in 10.0 mi Calm Calm - N/A   Overcast
10:35 PM 57.2 °F 55.4 °F 94% 30.25 in 10.0 mi Calm Calm - N/A   Overcast
10:55 PM 57.2 °F 55.4 °F 94% 30.25 in 10.0 mi Calm Calm - N/A   Overcast
11:15 PM 55.4 °F 55.4 °F 100% 30.25 in 10.0 mi Calm Calm - N/A   Mostly Cloudy
11:35 PM 55.4 °F 53.6 °F 94% 30.25 in 10.0 mi Calm Calm - N/A   Mostly Cloudy
11:55 PM 55.4 °F 53.6 °F 94% 30.25 in 10.0 mi Calm Calm - N/A   Scattered Clouds